THOR AGENA D R/B, 1245

Orbit data source: Space-Track

THOR AGENA D R/B, 1245 is space debris in LEO originally from a launch on Tue, 09 Mar 1965 UTC launched from the Air Force Western Test Range (AFWTR). Debris objects in space refer to the collection of defunct objects orbiting the Earth. Examples of debris include non-operational satellites, rocket bodies, and fragments generated from explosions, collisions, or faulty payload assembly.

Loading next visibility...
Identifier
1245, 1965-016J
Orbit
LEO
Last TLE update
11 hours ago
Origin
Manufacturer
LMSC
Mission
Spacecraft
Bus & Motor
AGENA D, Unknown motor
Mass
600 kg wet, 600 kg dry
Launch date (UTC)
1965-03-09 (60 years ago)
Launch vehicle
Unknown
Launch site
Air Force Western Test Range (AFWTR)
Object type
Payload
Rocket body
Debris
Shape & HBR
Cyl + 1 Nozzle, 6.3 m
Radar Cross Section
8.306 m², Large (>1 m²)

Expand to show TLE details & history

TLE from 11 hours ago
0 THOR AGENA D R/B
1 01245U 65016J   25181.89125211  .00000040  00000-0  65826-4 0  9991
2 01245  70.0773 135.2295 0020198 158.4126 201.7837 13.97575603 71217
Epoch: 2025-06-30T21:23Z
TLE epoch observation values (Epoch: 2025-06-30T21:23:24.182Z)
Latitude
-0.00003°
Longitude
-104.81582°
Altitude
918.183 km
Speed
7.386 km/s
True Right ascension
09h 00m 55s
True Declination
0° 00' 00"
Sunlit
Object was in daylight at epoch
Visualization orbit readout
Latitude
38.46642°
Longitude
57.56372°
Altitude
893.064 km
Speed
7.417 km/s
Apparent Right ascension
18h 56m 00s
Apparent Declination
27° 29' 10"
Sunlit
Object is in daylight
Visualization observer readout
Local Sidereal Time
19:59:33
Azimuth
231.446° WSW
Elevation
71.912°
Doppler factor
1
Orbital elements
Apogee altitude
914.937 km
Perigee altitude
885.535 km
Semi-major axis
7,278.373 km
Eccentricity
0.00202
Inclination
70.0773°
RAAN
135.2295°
Arg. of periapsis
158.4126°
True anomaly
Unknown
Mean anomaly
201.7837°
Eccentric anomaly
Unknown
Mean motion
3.49536 °/min
Orbital period
102.99 mins
BSTAR
0.000065826
Loading maneuver chart data...
Loading SW <> Apogee altitude chart data...
Loading historical data...
Loading historical data...
Loading historical data...
Loading historical data...
Loading historical data...
Loading historical data...
Loading historical data...

THOR AGENA D R/B Visibility forecast

Observer location: undefined°, undefined°

Span
Click to sort rows by Start time (UTC) header in descending order
Start Az.
Max El. time (UTC)
Max El. Az.
Max El.
End time (UTC)
End Az.
5 mins2025-07-01 08:21:26.666Z229.857° WSW2025-07-01 08:21:26.666Z229.857° WSW43.47°2025-07-01 08:26:26.666Z166.154° S
9 mins2025-07-01 21:33:26.666Z168.249° S2025-07-01 21:37:26.666Z114.263° SE32.55°2025-07-01 21:42:26.666Z42.679° NE
9 mins2025-07-01 23:19:26.666Z250.609° W2025-07-01 23:23:26.666Z306.753° NW27.811°2025-07-01 23:28:26.666Z5.844° NNE
7 mins2025-07-02 06:35:26.666Z11.347° NNE2025-07-02 06:38:26.666Z50.449° ENE22.353°2025-07-02 06:42:26.666Z100.176° ESE
|